GW6661 Weather Reports


Display with metric or nautical units.
time (UTC)temp
F
wind
direction
speed
MPH
gust
MPH
rain 1hr
in
rain 24hr
in
rain mn
in
humidity
%
barometer
mb
20260505003503 65 89 0.0 1.0 0.00 0.00 0.00 50 1013.1
20260505003003 65 157 0.0 0.0 0.00 0.00 0.00 50 1013.0
20260505002503 66 164 0.0 1.0 0.00 0.00 0.00 49 1013.1
20260505002003 66 142 0.0 0.0 0.00 0.00 0.00 52 1012.9
20260505001503 67 142 0.0 0.0 0.00 0.00 0.00 49 1013.1
20260505001003 68 205 0.0 1.0 0.00 0.00 0.00 46 1012.8
20260505000503 68 217 0.0 1.0 0.00 0.00 0.00 44 1012.6
20260505000003 69 148 0.0 1.0 0.00 0.00 0.00 43 1012.7
20260504235503 70 165 0.0 1.0 0.00 0.00 0.00 41 1012.4
20260504235022 71 66 0.0 0.0 0.00 0.00 0.00 38 1012.2
20260504234503 72 144 0.0 1.0 0.00 0.00 0.00 38 1012.4
20260504234003 73 283 0.0 1.0 0.00 0.00 0.00 31 1012.4
20260504233522 74 274 0.0 2.0 0.00 0.00 0.00 35 1012.4
20260504233003 74 277 1.0 2.0 0.00 0.00 0.00 33 1012.3
20260504232503 74 15 0.0 2.0 0.00 0.00 0.00 30 1012.2
20260504232003 75 243 0.0 2.0 0.00 0.00 0.00 31 1012.2
20260504231541 75 15 0.0 1.0 0.00 0.00 0.00 33 1012.3
20260504231003 75 251 2.0 2.0 0.00 0.00 0.00 35 1012.0
20260504230503 76 235 0.0 1.0 0.00 0.00 0.00 37 1012.1
20260504230003 76 220 2.0 2.0 0.00 0.00 0.00 30 1011.8
20260504225503 77 233 0.0 1.0 0.00 0.00 0.00 33 1011.9
20260504225003 77 272 0.0 1.0 0.00 0.00 0.00 29 1012.1
20260504224503 78 257 2.0 2.0 0.00 0.00 0.00 30 1011.9
20260504224003 78 184 0.0 2.0 0.00 0.00 0.00 31 1012.0
20260504223503 79 251 1.0 2.0 0.00 0.00 0.00 31 1012.0
20260504223022 79 249 2.0 2.0 0.00 0.00 0.00 27 1011.8
20260504222503 79 348 1.0 2.0 0.00 0.00 0.00 27 1011.9
20260504222003 80 194 1.0 3.0 0.00 0.00 0.00 26 1011.9
20260504221503 82 204 2.0 3.0 0.00 0.00 0.00 25 1011.8
20260504221022 83 324 1.0 2.0 0.00 0.00 0.00 25 1012.0
20260504220503 83 227 1.0 2.0 0.00 0.00 0.00 24 1012.0
20260504220003 83 89 0.0 4.0 0.00 0.00 0.00 24 1012.0
20260504215503 83 230 2.0 4.0 0.00 0.00 0.00 25 1012.0
20260504215003 83 265 0.0 2.0 0.00 0.00 0.00 24 1011.7
20260504214503 83 190 0.0 2.0 0.00 0.00 0.00 25 1011.9
20260504214003 82 268 1.0 2.0 0.00 0.00 0.00 27 1012.0
20260504213503 82 240 0.0 5.0 0.00 0.00 0.00 26 1012.0
20260504213022 83 97 2.0 3.0 0.00 0.00 0.00 26 1012.1
20260504212503 83 282 1.0 4.0 0.00 0.00 0.00 25 1012.0
20260504212022 83 283 2.0 3.0 0.00 0.00 0.00 26 1011.9
20260504211503 84 331 0.0 3.0 0.00 0.00 0.00 26 1012.0
20260504211003 83 224 2.0 3.0 0.00 0.00 0.00 28 1012.0
20260504210503 83 294 1.0 3.0 0.00 0.00 0.00 26 1012.1
20260504210003 84 250 3.0 3.0 0.00 0.00 0.00 27 1012.0
20260504205503 83 311 1.0 4.0 0.00 0.00 0.00 26 1012.1
20260504205003 83 184 0.0 3.0 0.00 0.00 0.00 26 1012.2
20260504204503 83 171 1.0 5.0 0.00 0.00 0.00 25 1012.0
20260504204003 84 287 2.0 4.0 0.00 0.00 0.00 27 1012.2
20260504203522 83 129 2.0 5.0 0.00 0.00 0.00 26 1012.3
20260504203022 83 323 0.0 4.0 0.00 0.00 0.00 27 1012.2
20260504202504 84 134 4.0 4.0 0.00 0.00 0.00 27 1012.4
20260504202004 84 291 0.0 3.0 0.00 0.00 0.00 27 1012.3
20260504201523 83 357 2.0 5.0 0.00 0.00 0.00 27 1012.4
20260504201004 82 19 1.0 4.0 0.00 0.00 0.00 27 1012.5
20260504200542 83 286 1.0 3.0 0.00 0.00 0.00 27 1012.6
20260504200004 83 278 2.0 4.0 0.00 0.00 0.00 29 1012.7
20260504195504 83 175 2.0 3.0 0.00 0.00 0.00 27 1012.6
20260504195004 83 58 1.0 2.0 0.00 0.00 0.00 27 1012.8
20260504194504 82 324 0.0 2.0 0.00 0.00 0.00 27 1013.0
20260504194004 82 187 1.0 4.0 0.00 0.00 0.00 28 1012.8
20260504193504 83 281 3.0 4.0 0.00 0.00 0.00 28 1012.8
20260504193042 82 97 5.0 7.0 0.00 0.00 0.00 27 1012.9
20260504192503 81 105 1.0 3.0 0.00 0.00 0.00 27 1012.9
20260504192003 80 188 3.0 4.0 0.00 0.00 0.00 28 1013.1
20260504191503 81 320 3.0 7.0 0.00 0.00 0.00 28 1013.3
20260504191003 82 66 0.0 3.0 0.00 0.00 0.00 28 1013.1
20260504190504 82 287 0.0 4.0 0.00 0.00 0.00 29 1013.3
20260504190004 81 163 2.0 3.0 0.00 0.00 0.00 28 1013.4
20260504185503 80 205 2.0 7.0 0.00 0.00 0.00 28 1013.5
20260504185003 80 237 3.0 4.0 0.00 0.00 0.00 28 1013.4
20260504184503 81 175 4.0 6.0 0.00 0.00 0.00 28 1013.5
20260504184022 81 68 2.0 4.0 0.00 0.00 0.00 28 1013.7
20260504183522 81 189 3.0 5.0 0.00 0.00 0.00 28 1013.8
20260504183003 79 306 1.0 3.0 0.00 0.00 0.00 29 1013.7
20260504182503 80 96 1.0 4.0 0.00 0.00 0.00 28 1013.7
20260504182003 80 137 3.0 5.0 0.00 0.00 0.00 29 1013.8
20260504181503 79 201 4.0 4.0 0.00 0.00 0.00 31 1013.9
20260504181041 79 191 2.0 3.0 0.00 0.00 0.00 31 1013.6
20260504180522 78 182 2.0 4.0 0.00 0.00 0.00 31 1013.9
20260504180022 78 89 0.0 4.0 0.00 0.00 0.00 29 1014.1
20260504175503 78 85 2.0 3.0 0.00 0.00 0.00 29 1014.1
20260504175003 77 123 3.0 5.0 0.00 0.00 0.00 31 1014.0
20260504174503 77 187 3.0 4.0 0.00 0.00 0.00 31 1013.9
20260504174041 77 89 2.0 7.0 0.00 0.00 0.00 32 1014.1
20260504173522 78 171 2.0 7.0 0.00 0.00 0.00 32 1013.9
20260504173041 78 210 2.0 4.0 0.00 0.00 0.00 30 1014.3
20260504172522 77 67 2.0 3.0 0.00 0.00 0.00 30 1014.3
20260504172003 77 218 2.0 4.0 0.00 0.00 0.00 30 1014.6
20260504171503 76 359 1.0 4.0 0.00 0.00 0.00 31 1014.7
20260504171003 76 108 0.0 4.0 0.00 0.00 0.00 30 1014.9
20260504170503 76 216 0.0 3.0 0.00 0.00 0.00 32 1014.9
20260504151004 70 55 0.0 3.0 0.00 0.00 0.00 46 1016.1
20260504150504 70 158 0.0 3.0 0.00 0.00 0.00 48 1016.2
20260504141003 64 58 2.0 2.0 0.00 0.00 0.00 60 1016.5
20260504140523 63 37 1.0 3.0 0.00 0.00 0.00 60 1016.5
20260504130503 56 110 2.0 3.0 0.00 0.00 0.00 76 1016.9
20260504110503 38 45 2.0 3.0 0.00 0.00 0.00 94 1017.4
20260504100523 38 53 2.0 2.0 0.00 0.00 0.00 94 1017.2
20260504081504 39 54 2.0 2.0 0.00 0.00 0.00 91 1017.1
20260504081004 39 70 1.0 2.0 0.00 0.00 0.00 91 1017.2
20260504080503 39 73 1.0 2.0 0.00 0.00 0.00 92 1017.4
20260504050503 41 76 1.0 1.0 0.00 0.00 0.00 89 1017.5
20260504050003 41 73 0.0 1.0 0.00 0.00 0.00 88 1017.5
20260504045503 41 72 1.0 2.0 0.00 0.00 0.00 88 1017.5
20260504045003 42 32 0.0 2.0 0.00 0.00 0.00 88 1017.5
20260504044504 42 55 0.0 2.0 0.00 0.00 0.00 88 1017.4
20260504044003 42 58 2.0 2.0 0.00 0.00 0.00 87 1017.5
20260504043503 42 48 0.0 2.0 0.00 0.00 0.00 87 1017.4
20260504043003 42 67 1.0 2.0 0.00 0.00 0.00 87 1017.6
20260504042522 42 68 0.0 2.0 0.00 0.00 0.00 87 1017.7
20260504042003 42 72 1.0 1.0 0.00 0.00 0.00 87 1017.6
20260504041503 42 51 1.0 1.0 0.00 0.00 0.00 86 1017.4
20260504041003 42 89 0.0 0.0 0.00 0.00 0.00 86 1017.5
20260504040503 42 66 0.0 1.0 0.00 0.00 0.00 85 1017.5
20260504040003 42 56 0.0 1.0 0.00 0.00 0.00 84 1017.6
20260504035503 42 103 0.0 1.0 0.00 0.00 0.00 84 1017.7
20260504035003 42 122 0.0 0.0 0.00 0.00 0.00 84 1017.6
20260504034503 42 53 0.0 1.0 0.00 0.00 0.00 83 1017.9
20260504034003 43 71 0.0 1.0 0.00 0.00 0.00 83 1017.5
20260504033504 43 61 1.0 2.0 0.00 0.00 0.00 83 1017.4
20260504033003 43 49 0.0 1.0 0.00 0.00 0.00 82 1017.3
20260504032503 43 89 0.0 1.0 0.00 0.00 0.00 82 1017.6
20260504032003 43 42 0.0 1.0 0.00 0.00 0.00 81 1017.3
20260504031503 43 65 0.0 1.0 0.00 0.00 0.00 81 1017.4
20260504031003 44 88 0.0 1.0 0.00 0.00 0.00 80 1017.5
20260504030503 44 66 0.0 1.0 0.00 0.00 0.00 80 1017.4
20260504030003 44 124 0.0 1.0 0.00 0.00 0.00 80 1017.4
20260504025503 44 38 0.0 1.0 0.00 0.00 0.00 79 1017.3
20260504025003 44 63 0.0 2.0 0.00 0.00 0.00 80 1017.2
20260504024503 44 41 0.0 1.0 0.00 0.00 0.00 79 1017.3
20260504024041 44 89 0.0 1.0 0.00 0.00 0.00 79 1016.9
20260504023503 45 65 0.0 1.0 0.00 0.00 0.00 79 1017.3
20260504023022 45 32 0.0 0.0 0.00 0.00 0.00 78 1017.2
20260504022503 45 34 0.0 1.0 0.00 0.00 0.00 77 1017.0
20260504022003 45 97 0.0 1.0 0.00 0.00 0.00 76 1017.0
20260504021503 46 73 0.0 1.0 0.00 0.00 0.00 76 1017.0
20260504021022 46 60 0.0 1.0 0.00 0.00 0.00 75 1017.0
20260504020003 46 67 0.0 1.0 0.00 0.00 0.00 74 1017.2
20260504015503 46 65 0.0 1.0 0.00 0.00 0.00 73 1016.8
20260504015022 47 91 0.0 1.0 0.00 0.00 0.00 73 1017.0
20260504014503 47 102 0.0 1.0 0.00 0.00 0.00 73 1016.9
20260504014041 47 102 0.0 1.0 0.00 0.00 0.00 72 1016.8
20260504013503 48 89 0.0 1.0 0.00 0.00 0.00 71 1016.7
20260504013003 48 76 0.0 1.0 0.00 0.00 0.00 70 1016.7
20260504012504 48 55 1.0 2.0 0.00 0.00 0.00 69 1016.7
20260504012004 49 70 1.0 1.0 0.00 0.00 0.00 68 1016.4
20260504011503 49 79 1.0 1.0 0.00 0.00 0.00 68 1016.6
20260504011004 49 60 0.0 1.0 0.00 0.00 0.00 67 1016.4
20260504010504 50 89 0.0 1.0 0.00 0.00 0.00 65 1016.6
20260504010004 50 113 0.0 0.0 0.00 0.00 0.00 65 1016.1
20260504005503 51 124 0.0 0.0 0.00 0.00 0.00 64 1016.3
20260504005004 51 43 0.0 1.0 0.00 0.00 0.00 62 1016.3
20260504004503 51 60 0.0 1.0 0.00 0.00 0.00 61 1016.0
20260504004003 52 89 0.0 1.0 0.00 0.00 0.00 60 1016.1